Location: Newark
(52.2583°N, 7.1190°W)
Time: 07:47:43
(UTC+00:00)

S-56A Canister/Altair - Pass Details

Date: 20 November 2019
Orbit: 633 x 2499 km, 38.9° (Epoch: 06 December)

Event Time Altitude Azimuth Distance (km) Brightness Sun altitude
Rises 18:54:05 0° 246° (WSW) 4,896 12.9 -21.5°
Reaches altitude 10° 18:58:17 10° 237° (WSW) 3,567 11.8 -22.2°
Maximum altitude 19:05:11 28° 183° (S) 1,969 9.6 -23.2°
Enters shadow 19:07:45 22° 149° (SSE) 2,049 9.4 -23.6°
